Starlink 3638

operational
NORAD ID: 51786 Int'l Des: 2022-017 Owner: SPXS Country: US Constellation: starlink
LEOCIRCULAR

Starlink 3638について

説明を読み込み中...

リアルタイム位置

3D地球を読み込み中...

次回通過

高度履歴

Altitude vs Time

uPlot chart will show altitude changes over time

軌道要素

1 51786U 22017U 26036.66276403 .00002075 00000-0 14837-3 0 9990
2 51786 53.2161 132.8963 0001362 90.6649 269.4499 15.08848469217449
Epoch: Feb 5, 2026 • Age: 16 hours

現在のステータス

高度 558.6 km
速度 7.58 km/s
衛星直下点 -51.81°S, 170.71°E
打ち上げ日 Feb 25, 2022
運用期間 3.9 years
タイプ internet

技術仕様

分類 Payload
質量 297.00 kg
乾燥質量 275.00 kg
総質量 297.00 kg
長さ 0.20 m
直径 2.80 m
スパン 9.00 m
形状 Box + pan
製造者 SPXS
バスタイプ Starlink
フェーズステータス In Orbit
所有者/国 SPXS/US

大規模コンステレーション

Loading constellations...